Location: *
(49.4547°N, 7.9131°E)
Time: 01:02:07
(UTC+00:00)

Lacrosse 5 rocket - Pass Details

Date: 22 September 2019
Orbit: 459 x 639 km, 57.0° (Epoch: 13 October)

Event Time Altitude Azimuth Distance (km) Brightness Sun altitude
Rises 20:08:05 0° 252° (WSW) 2,505 5.2 -25.5°
Reaches altitude 10° 20:10:13 10° 258° (WSW) 1,648 4.3 -25.8°
Enters shadow 20:12:55 39° 291° (WNW) 742 2.4 -26.1°
